{"data":{"norad_id":52666,"epoch":"2026-09-19T23:32:08.843424Z","epoch_age_seconds":111328,"freshness":"FRESH","line1":"1 52666U 22053L   26262.98065791  .00003941  00000+0  26557-3 0  9994","line2":"2 52666  53.1616   0.8706 0001092  88.9911 271.1205 15.08837378240383","mean_motion":15.08837378,"eccentricity":0.0001092,"inclination_deg":53.1616,"raan_deg":0.8706,"arg_perigee_deg":88.9911,"mean_anomaly_deg":271.1205,"bstar":0.00026557,"rev_number":24038,"period_min":95.437720525505,"perigee_km":538.99596996711,"apogee_km":540.50683679441,"semimajor_km":6917.8884033808,"source":"CELESTRAK","updated_at":"2026-09-20T09:00:40.102100Z"}}